COSMOS 1725

Satellite information

Favourite Embed

Satellite Type and Status

PAYLOADIN ORBIT

Key statistics

Satellite COSMOS 1725 at a glance.

Uptime

14481

Days in orbit

Revolutions

≈ 13.7

Per day

Orbit

LEO

Low Earth Orbit

Inclination

82.9

Latest

Satellite identification and parameters

Extended collection of information and parameters for COSMOS 1725.

Object identification

Identified? True

Debris? False

Object name: COSMOS 1725

International designator: 1986-005A

Object number (NORAD): 16493

Object ID (CCSDS): 16493

Country: COMMONWEALTH OF INDEPENDENT STATES (CIS)

Current information (Y/N): Y

RCS size: LARGE

Orbital parameters

Period: 104.736 minutes

Inclination: 82.934 deg

SMA: 7360.211 km

Apoapsis: 997.497 km

Periapsis: 966.655 km

RAAN: 32.1676 deg

Eccentricy: 0.00209522

Argument of periapsis: 257.8646 deg

Mean anomaly: 162.6449 deg

Mean motion: 13.74888182 rev/day

Mean motion (dot): 0.00000054 rev/day2

B* drag term: 0.000041460031 1/REarth

Two-line elements (TLE)

Creation date: Sept. 8, 2025, 6:18 p.m.

Reference frame: TEME

Reference center: EARTH

Epoch: Sept. 8, 2025, 10:49 a.m. UTC

TLE line 0: 0 COSMOS 1725

TLE line 1: 1 16493U 86005A 25251.45094302 .00000054 00000-0 41460-4 0 9992

TLE line 2: 2 16493 82.9340 32.1676 0020952 257.8646 162.6449 13.74888182 33482

Live tracking on map

Real-time ground track for satellite COSMOS 1725.

In-orbit conjunctions

A list of the most updated potential collisions computed for object COSMOS 1725.

Target Orbit TCA Probability of collision Miss distance Type
SL-8 R/B LEO 2025-05-20 20:03:38 0.002330754 62.0 (m) ROCKET BODY
COSMOS 1275 DEB LEO 2024-05-30 12:45:13 0.0001632871 104.0 (m) DEBRIS

Associated space launch

Navigation satellite providing location information for the Tsiklon-B navigation system

COSMOS 1725 was lifted into orbit during the mission ‘Kosmos-3M | Parus 53’, on board a Kosmos-3M space rocket.

The launch took place on Jan. 16, 1986, 11:38 a.m. from 132/1 (132L).

For more information about the launch, click the button.

Launch to space Kosmos-3M | Parus 53
Kosmos-3M | Parus 53

Agency: N/A

Status: Launch Successful

Launch date: Jan. 16, 1986, 11:38 a.m. UTC

Rocket: Kosmos-3M

Launch pad: 132/1 (132L)

Location: Plesetsk Cosmodrome, Russian Federation

...

Latest news about this satellite

There are no fresh news available about this satellite. Check back as we update our databases every day.


Newsletter sign-up

Weekly statistics, charts and insights to help you stay on top of the space industry.